STARLINK-32403, 61629

Orbit data source: Space-Track

STARLINK-32403, 61629 is a payload satellite owned by SpaceX/Seattle (US) in LEO that was launched on Wed, 23 Oct 2024 UTC via an FALCON 9 launch vehicle from the Air Force Eastern Test Range (AFETR). Payload-class satellites include a variety of spacecraft equipped with specific instruments for various scientific and technological missions. These include communications satellites like Starlink; space stations such as the ISS; scientific satellites like the Hubble; Earth observation satellites from companies like Planet Labs, Umbra, and HawkEye 360; GPS; miniature CubeSats for education and research; and military/defense satellites.

Loading next visibility...
Identifier
61629, 2024-191J
Orbit
LEO
Country
Flag of USUS
Related business
Manufacturer
SpaceX/Seattle
Mission
Operational Commercial Communications
Bus & Motor
STARLINK V2M, Unknown motor
Mass
730 kg wet, ~700 kg dry
Launch date (UTC)
2024-10-23 (2 years ago)
Launch vehicle
FALCON 9
Launch site
Air Force Eastern Test Range (AFETR)
Object type
Payload
Rocket body
Debris
Shape & HBR
Box + 2 Pan, 17.7 m
Radar Cross Section
33.884 m², Large (>1 m²)

Expand to show TLE details & history
Last TLE update: 7 hours ago

TLE from 7 hours ago
0 STARLINK-32403
1 61629U 24191J   26256.13279383 -.00000194  00000-0  24887-5 0  9997
2 61629  43.0005 175.9002 0001253 269.6120  90.4588 15.27573444106204
Epoch: 2026-09-13T03:11Z
TLE epoch observation values (Epoch: 2026-09-13T03:11:13.386Z)
Latitude
-0.00004°
Longitude
135.96256°
Altitude
482.851 km
Speed
7.626 km/s
True Right ascension
11h 43m 36s
True Declination
0° 00' 00"
Sunlit
Object was in daylight at epoch
Visualization orbit readout
Latitude
Unknown
Longitude
Unknown
Altitude
Unknown
Speed
Unknown
Apparent Right ascension
Unknown
Apparent Declination
Unknown
Sunlit
N/A
Visualization observer readout
Local Sidereal Time
03:06:24
Azimuth
Unknown
Elevation
Unknown
Doppler factor
Unknown
Orbital elements
Apogee altitude
485.874 km
Perigee altitude
484.154 km
Semi-major axis
6,863.151 km
Eccentricity
0.00013
Inclination
43.0005°
RAAN
175.9002°
Arg. of periapsis
269.612°
True anomaly
90.47316°
Mean anomaly
90.4588°
Eccentric anomaly
90.46598°
Mean motion
3.81731 °/min
Orbital period
94.31 mins
BSTAR
0.0000024887
Loading maneuver chart data...
Computing Atmospheric mass density...
Loading historical data...
Loading historical data...
Loading historical data...
Loading historical data...
Loading historical data...
Loading historical data...
Loading historical data...

Documentation

Showing up to 5 results
|